Wetterdaten: Donnerstag, 01.01.2015
Datum Zeit Temperatur Luftfeuchte Luftdruck Regen Wind Richtung Richtung Taupunkt Windchill Windben
01.01.2015 00:00 -7,6 C 89 % 1031,6 hPa 0,0 l/m 0,2 km/h (0 Bft) SW 225 -9,1 C -7,6 C 0,0 km/h (0 Bft)
01.01.2015 00:05 -7,8 C 89 % 1031,6 hPa 0,0 l/m 0,0 km/h (0 Bft) SW 225 -9,3 C -7,8 C 0,0 km/h (0 Bft)
01.01.2015 00:10 -7,3 C 89 % 1031,6 hPa 0,0 l/m 0,0 km/h (0 Bft) S-SO 157 -8,8 C -7,8 C 0,0 km/h (0 Bft)
01.01.2015 00:15 -6,7 C 89 % 1031,6 hPa 0,0 l/m 0,6 km/h (0 Bft) S 180 -8,2 C -7,4 C 2,7 km/h (1 Bft)
01.01.2015 00:20 -6,7 C 89 % 1031,6 hPa 0,0 l/m 1,9 km/h (1 Bft) S-SO 157 -8,2 C -7,1 C 3,9 km/h (1 Bft)
01.01.2015 00:25 -7,5 C 89 % 1031,6 hPa 0,0 l/m 1,4 km/h (1 Bft) S-SO 157 -9,0 C -7,2 C 0,0 km/h (0 Bft)
01.01.2015 00:30 -8,3 C 89 % 1031,6 hPa 0,0 l/m 0,0 km/h (0 Bft) S-SO 157 -9,8 C -7,9 C 0,0 km/h (0 Bft)
01.01.2015 00:35 -8,4 C 89 % 1031,6 hPa 0,0 l/m 0,2 km/h (0 Bft) S-SO 157 -9,9 C -8,2 C 0,0 km/h (0 Bft)
01.01.2015 00:40 -8,2 C 88 % 1031,9 hPa 0,0 l/m 0,2 km/h (0 Bft) S-SO 157 -9,8 C -8,4 C 0,0 km/h (0 Bft)
01.01.2015 00:45 -8,4 C 88 % 1031,9 hPa 0,0 l/m 0,0 km/h (0 Bft) S-SO 157 -10,0 C -8,5 C 0,0 km/h (0 Bft)
01.01.2015 00:50 -8,4 C 88 % 1031,9 hPa 0,0 l/m 0,0 km/h (0 Bft) S-SO 157 -10,0 C -8,7 C 0,0 km/h (0 Bft)
01.01.2015 00:55 -8,4 C 88 % 1031,9 hPa 0,0 l/m 0,0 km/h (0 Bft) S-SO 157 -10,0 C -8,7 C 0,0 km/h (0 Bft)
01.01.2015 01:00 -8,4 C 88 % 1031,7 hPa 0,0 l/m 0,0 km/h (0 Bft) S-SO 157 -10,0 C -8,7 C 0,0 km/h (0 Bft)
01.01.2015 01:05 -8,3 C 88 % 1031,7 hPa 0,0 l/m 0,0 km/h (0 Bft) S-SO 157 -9,9 C -8,7 C 0,0 km/h (0 Bft)
01.01.2015 01:08 -8,4 C 88 % 1031,7 hPa 0,0 l/m 0,0 km/h (0 Bft) S-SO 157 -10,0 C -8,6 C 0,0 km/h (0 Bft)
01.01.2015 01:10 -8,5 C 88 % 1031,7 hPa 0,0 l/m 0,0 km/h (0 Bft) S-SO 157 -10,1 C -8,6 C 0,0 km/h (0 Bft)
01.01.2015 01:15 -8,6 C 88 % 1031,8 hPa 0,0 l/m 0,0 km/h (0 Bft) SW 225 -10,2 C -8,7 C 0,0 km/h (0 Bft)
01.01.2015 01:20 -8,6 C 87 % 1031,8 hPa 0,0 l/m 0,0 km/h (0 Bft) SW 225 -10,4 C -8,8 C 0,0 km/h (0 Bft)
01.01.2015 01:25 -8,7 C 87 % 1031,8 hPa 0,0 l/m 0,0 km/h (0 Bft) SW 225 -10,5 C -8,7 C 0,0 km/h (0 Bft)
01.01.2015 01:30 -8,6 C 87 % 1031,8 hPa 0,0 l/m 0,0 km/h (0 Bft) SW 225 -10,4 C -8,7 C 0,0 km/h (0 Bft)
01.01.2015 01:35 -8,6 C 87 % 1032,1 hPa 0,0 l/m 0,0 km/h (0 Bft) W-SW 247 -10,4 C -8,7 C 0,0 km/h (0 Bft)
01.01.2015 01:40 -8,6 C 87 % 1032,1 hPa 0,0 l/m 0,0 km/h (0 Bft) W-SW 247 -10,4 C -8,8 C 0,0 km/h (0 Bft)
01.01.2015 01:45 -8,6 C 87 % 1032,1 hPa 0,0 l/m 0,0 km/h (0 Bft) SW 225 -10,4 C -8,9 C 0,0 km/h (0 Bft)
01.01.2015 01:50 -8,5 C 87 % 1032,1 hPa 0,0 l/m 0,0 km/h (0 Bft) W-SW 247 -10,3 C -8,7 C 0,0 km/h (0 Bft)
01.01.2015 01:55 -8,3 C 87 % 1031,9 hPa 0,0 l/m 0,0 km/h (0 Bft) S 180 -10,1 C -8,6 C 0,0 km/h (0 Bft)
01.01.2015 02:00 -8,3 C 87 % 1031,9 hPa 0,0 l/m 0,0 km/h (0 Bft) W-SW 247 -10,1 C -8,5 C 0,0 km/h (0 Bft)
01.01.2015 02:05 -8,5 C 87 % 1031,9 hPa 0,0 l/m 0,0 km/h (0 Bft) S 180 -10,3 C -8,5 C 0,0 km/h (0 Bft)
01.01.2015 02:10 -8,5 C 87 % 1031,9 hPa 0,0 l/m 0,0 km/h (0 Bft) S 180 -10,3 C -8,5 C 0,0 km/h (0 Bft)
01.01.2015 02:15 -8,6 C 87 % 1031,9 hPa 0,0 l/m 0,0 km/h (0 Bft) S 180 -10,4 C -8,7 C 0,0 km/h (0 Bft)
01.01.2015 02:20 -8,7 C 87 % 1031,9 hPa 0,0 l/m 0,0 km/h (0 Bft) S 180 -10,5 C -8,8 C 0,0 km/h (0 Bft)
01.01.2015 02:25 -8,7 C 87 % 1031,9 hPa 0,0 l/m 0,0 km/h (0 Bft) W-SW 247 -10,5 C -9,0 C 0,0 km/h (0 Bft)
01.01.2015 02:30 -8,9 C 87 % 1031,9 hPa 0,0 l/m 0,0 km/h (0 Bft) W-SW 247 -10,7 C -9,2 C 0,0 km/h (0 Bft)
01.01.2015 02:35 -8,4 C 87 % 1031,9 hPa 0,0 l/m 0,0 km/h (0 Bft) S 180 -10,2 C -9,1 C 1,8 km/h (1 Bft)
01.01.2015 02:40 -8,9 C 87 % 1032,1 hPa 0,0 l/m 0,0 km/h (0 Bft) SW 225 -10,7 C -9,2 C 0,0 km/h (0 Bft)
01.01.2015 02:45 -9,4 C 87 % 1032,1 hPa 0,0 l/m 0,0 km/h (0 Bft) S 180 -11,2 C -9,5 C 0,0 km/h (0 Bft)
01.01.2015 02:50 -9,2 C 87 % 1032,1 hPa 0,0 l/m 0,0 km/h (0 Bft) S-SO 157 -11,0 C -9,8 C 0,0 km/h (0 Bft)
01.01.2015 02:55 -9,3 C 86 % 1032,1 hPa 0,0 l/m 0,0 km/h (0 Bft) S-SO 157 -11,2 C -9,7 C 0,0 km/h (0 Bft)
01.01.2015 03:00 -9,9 C 86 % 1031,9 hPa 0,0 l/m 0,0 km/h (0 Bft) S-SO 157 -11,8 C -10,0 C 0,0 km/h (0 Bft)
01.01.2015 03:05 -10,1 C 86 % 1031,9 hPa 0,0 l/m 0,0 km/h (0 Bft) S-SO 157 -12,0 C -10,1 C 0,0 km/h (0 Bft)
01.01.2015 03:10 -10,1 C 86 % 1031,9 hPa 0,0 l/m 0,0 km/h (0 Bft) S-SO 157 -12,0 C -10,2 C 0,0 km/h (0 Bft)
01.01.2015 03:15 -9,9 C 86 % 1031,9 hPa 0,0 l/m 0,0 km/h (0 Bft) S 180 -11,8 C -10,3 C 0,0 km/h (0 Bft)
01.01.2015 03:20 -9,9 C 85 % 1031,9 hPa 0,0 l/m 0,0 km/h (0 Bft) S 180 -11,9 C -10,4 C 0,0 km/h (0 Bft)
01.01.2015 03:25 -10,2 C 85 % 1031,9 hPa 0,0 l/m 0,0 km/h (0 Bft) S-SW 202 -12,2 C -10,4 C 0,0 km/h (0 Bft)
01.01.2015 03:30 -10,0 C 85 % 1031,9 hPa 0,0 l/m 0,0 km/h (0 Bft) S 180 -12,0 C -10,4 C 0,0 km/h (0 Bft)
01.01.2015 03:35 -10,3 C 85 % 1031,9 hPa 0,0 l/m 0,0 km/h (0 Bft) SW 225 -12,3 C -10,6 C 0,0 km/h (0 Bft)
01.01.2015 03:40 -10,8 C 85 % 1031,8 hPa 0,0 l/m 0,0 km/h (0 Bft) S-SO 157 -12,8 C -10,8 C 0,0 km/h (0 Bft)
01.01.2015 03:45 -10,7 C 85 % 1031,8 hPa 0,0 l/m 0,0 km/h (0 Bft) S-SO 157 -12,7 C -10,8 C 0,0 km/h (0 Bft)
01.01.2015 03:50 -10,6 C 84 % 1031,8 hPa 0,0 l/m 0,0 km/h (0 Bft) S-SO 157 -12,8 C -10,9 C 0,0 km/h (0 Bft)
01.01.2015 03:55 -10,8 C 84 % 1031,8 hPa 0,0 l/m 0,0 km/h (0 Bft) S 180 -13,0 C -10,9 C 0,0 km/h (0 Bft)
01.01.2015 04:00 -11,0 C 84 % 1031,9 hPa 0,0 l/m 0,0 km/h (0 Bft) S-SO 157 -13,2 C -11,1 C 0,0 km/h (0 Bft)
01.01.2015 04:05 -11,1 C 84 % 1031,9 hPa 0,0 l/m 0,0 km/h (0 Bft) S-SO 157 -13,3 C -11,2 C 0,0 km/h (0 Bft)
01.01.2015 04:08 -11,0 C 84 % 1031,9 hPa 0,0 l/m 0,0 km/h (0 Bft) S-SO 157 -13,2 C -10,9 C 0,0 km/h (0 Bft)
01.01.2015 04:10 -10,8 C 84 % 1031,9 hPa 0,0 l/m 0,0 km/h (0 Bft) S-SO 157 -13,0 C -11,1 C 0,0 km/h (0 Bft)
01.01.2015 04:15 -11,0 C 84 % 1031,6 hPa 0,0 l/m 0,0 km/h (0 Bft) S-SO 157 -13,2 C -11,2 C 0,0 km/h (0 Bft)
01.01.2015 04:20 -11,0 C 84 % 1031,6 hPa 0,0 l/m 0,0 km/h (0 Bft) S-SO 157 -13,2 C -11,2 C 0,0 km/h (0 Bft)
01.01.2015 04:25 -11,4 C 84 % 1031,6 hPa 0,0 l/m 0,0 km/h (0 Bft) S-SO 157 -13,5 C -11,4 C 0,0 km/h (0 Bft)
01.01.2015 04:30 -11,2 C 84 % 1031,6 hPa 0,0 l/m 0,0 km/h (0 Bft) S-SO 157 -13,4 C -11,3 C 0,0 km/h (0 Bft)
01.01.2015 04:35 -11,7 C 83 % 1031,7 hPa 0,0 l/m 0,0 km/h (0 Bft) S-SO 157 -14,0 C -11,4 C 0,0 km/h (0 Bft)
01.01.2015 04:40 -11,8 C 83 % 1031,7 hPa 0,0 l/m 0,0 km/h (0 Bft) S-SO 157 -14,1 C -11,7 C 0,0 km/h (0 Bft)
01.01.2015 04:45 -11,1 C 83 % 1031,7 hPa 0,0 l/m 0,0 km/h (0 Bft) SW 225 -13,4 C -11,7 C 0,0 km/h (0 Bft)
01.01.2015 04:50 -11,2 C 83 % 1031,7 hPa 0,0 l/m 0,0 km/h (0 Bft) SW 225 -13,5 C -11,4 C 0,0 km/h (0 Bft)
01.01.2015 04:55 -11,5 C 83 % 1031,6 hPa 0,0 l/m 0,0 km/h (0 Bft) S-SO 157 -13,8 C -11,3 C 0,0 km/h (0 Bft)
01.01.2015 05:00 -12,2 C 83 % 1031,6 hPa 0,0 l/m 0,0 km/h (0 Bft) S-SO 157 -14,5 C -11,4 C 0,0 km/h (0 Bft)
01.01.2015 05:05 -12,8 C 82 % 1031,6 hPa 0,0 l/m 0,0 km/h (0 Bft) S-SO 157 -15,2 C -11,9 C 0,0 km/h (0 Bft)
01.01.2015 05:10 -12,6 C 82 % 1031,6 hPa 0,0 l/m 0,0 km/h (0 Bft) S-SO 157 -15,0 C -12,1 C 0,0 km/h (0 Bft)
01.01.2015 05:15 -12,2 C 82 % 1031,7 hPa 0,0 l/m 0,0 km/h (0 Bft) S-SO 157 -14,6 C -12,0 C 0,0 km/h (0 Bft)
01.01.2015 05:20 -12,2 C 82 % 1031,7 hPa 0,0 l/m 0,0 km/h (0 Bft) S-SO 157 -14,6 C -12,0 C 0,0 km/h (0 Bft)
01.01.2015 05:25 -11,1 C 83 % 1031,7 hPa 0,0 l/m 0,0 km/h (0 Bft) S-SO 157 -13,4 C -11,8 C 0,0 km/h (0 Bft)
01.01.2015 05:30 -11,8 C 82 % 1031,7 hPa 0,0 l/m 0,0 km/h (0 Bft) S-SO 157 -14,2 C -11,8 C 0,0 km/h (0 Bft)
01.01.2015 05:35 -12,2 C 82 % 1031,7 hPa 0,0 l/m 0,0 km/h (0 Bft) S 180 -14,6 C -11,9 C 0,0 km/h (0 Bft)
01.01.2015 05:40 -12,0 C 82 % 1031,6 hPa 0,0 l/m 0,0 km/h (0 Bft) S 180 -14,4 C -11,9 C 0,0 km/h (0 Bft)
01.01.2015 05:45 -12,0 C 82 % 1031,6 hPa 0,0 l/m 0,0 km/h (0 Bft) S-SO 157 -14,4 C -11,8 C 0,0 km/h (0 Bft)
01.01.2015 05:50 -12,0 C 82 % 1031,6 hPa 0,0 l/m 0,0 km/h (0 Bft) S-SO 157 -14,4 C -11,8 C 0,0 km/h (0 Bft)
01.01.2015 05:55 -12,0 C 82 % 1031,6 hPa 0,0 l/m 0,0 km/h (0 Bft) S-SO 157 -14,4 C -11,8 C 0,0 km/h (0 Bft)
01.01.2015 06:00 -11,6 C 82 % 1031,9 hPa 0,0 l/m 0,2 km/h (0 Bft) SO 135 -14,0 C -11,6 C 0,0 km/h (0 Bft)
01.01.2015 06:05 -11,8 C 82 % 1031,9 hPa 0,0 l/m 0,3 km/h (0 Bft) SO 135 -14,2 C -11,3 C 0,0 km/h (0 Bft)
01.01.2015 06:10 -11,3 C 83 % 1031,9 hPa 0,0 l/m 0,2 km/h (0 Bft) SO 135 -13,6 C -11,2 C 0,0 km/h (0 Bft)
01.01.2015 06:15 -11,3 C 83 % 1031,9 hPa 0,0 l/m 0,0 km/h (0 Bft) SO 135 -13,6 C -11,4 C 0,0 km/h (0 Bft)
01.01.2015 06:20 -11,7 C 83 % 1031,9 hPa 0,0 l/m 0,0 km/h (0 Bft) SO 135 -14,0 C -11,6 C 0,0 km/h (0 Bft)
01.01.2015 06:25 -11,9 C 83 % 1031,9 hPa 0,0 l/m 0,0 km/h (0 Bft) SO 135 -14,2 C -11,8 C 0,0 km/h (0 Bft)
01.01.2015 06:30 -11,8 C 83 % 1031,9 hPa 0,0 l/m 0,0 km/h (0 Bft) SO 135 -14,1 C -11,9 C 0,0 km/h (0 Bft)
01.01.2015 06:35 -11,2 C 83 % 1031,9 hPa 0,0 l/m 0,0 km/h (0 Bft) S-SO 157 -13,5 C -11,9 C 0,0 km/h (0 Bft)
01.01.2015 06:40 -10,3 C 84 % 1031,9 hPa 0,0 l/m 0,2 km/h (0 Bft) S 180 -12,5 C -11,8 C 0,0 km/h (0 Bft)
01.01.2015 06:45 -11,1 C 84 % 1031,9 hPa 0,0 l/m 0,2 km/h (0 Bft) S-SO 157 -13,3 C -11,7 C 0,0 km/h (0 Bft)
01.01.2015 06:50 -11,6 C 83 % 1031,9 hPa 0,0 l/m 0,0 km/h (0 Bft) S-SO 157 -13,9 C -11,8 C 0,0 km/h (0 Bft)
01.01.2015 06:55 -11,8 C 83 % 1031,9 hPa 0,0 l/m 0,0 km/h (0 Bft) S-SO 157 -14,1 C -11,8 C 0,0 km/h (0 Bft)
01.01.2015 07:00 -12,1 C 83 % 1031,8 hPa 0,0 l/m 0,0 km/h (0 Bft) S-SO 157 -14,4 C -12,1 C 0,0 km/h (0 Bft)
01.01.2015 07:03 -11,8 C 83 % 1031,8 hPa 0,0 l/m 0,0 km/h (0 Bft) S-SO 157 -14,1 C -12,1 C 0,0 km/h (0 Bft)
01.01.2015 07:05 -12,0 C 83 % 1031,8 hPa 0,0 l/m 0,0 km/h (0 Bft) SO 135 -14,3 C -12,1 C 0,0 km/h (0 Bft)
01.01.2015 07:10 -12,2 C 82 % 1031,8 hPa 0,0 l/m 0,0 km/h (0 Bft) SO 135 -14,6 C -12,1 C 0,0 km/h (0 Bft)
01.01.2015 07:15 -11,9 C 82 % 1031,5 hPa 0,0 l/m 0,0 km/h (0 Bft) SO 135 -14,3 C -12,1 C 0,0 km/h (0 Bft)
01.01.2015 07:20 -11,6 C 82 % 1031,5 hPa 0,0 l/m 0,0 km/h (0 Bft) SO 135 -14,0 C -12,1 C 0,0 km/h (0 Bft)
01.01.2015 07:25 -12,0 C 82 % 1031,5 hPa 0,0 l/m 0,0 km/h (0 Bft) SO 135 -14,4 C -12,2 C 0,0 km/h (0 Bft)
01.01.2015 07:30 -12,2 C 82 % 1031,5 hPa 0,0 l/m 0,0 km/h (0 Bft) SO 135 -14,6 C -12,3 C 0,0 km/h (0 Bft)
01.01.2015 07:35 -12,3 C 82 % 1031,7 hPa 0,0 l/m 0,0 km/h (0 Bft) SO 135 -14,7 C -12,5 C 0,0 km/h (0 Bft)
01.01.2015 07:40 -12,0 C 82 % 1031,7 hPa 0,0 l/m 0,3 km/h (0 Bft) SO 135 -14,4 C -12,3 C 1,6 km/h (1 Bft)
01.01.2015 07:45 -11,5 C 82 % 1031,7 hPa 0,0 l/m 0,3 km/h (0 Bft) SO 135 -13,9 C -11,7 C 0,0 km/h (0 Bft)
01.01.2015 07:50 -11,3 C 83 % 1031,7 hPa 0,0 l/m 0,0 km/h (0 Bft) SO 135 -13,6 C -11,4 C 0,0 km/h (0 Bft)
01.01.2015 07:55 -11,6 C 83 % 1031,5 hPa 0,0 l/m 0,0 km/h (0 Bft) S-SO 157 -13,9 C -11,4 C 0,0 km/h (0 Bft)
01.01.2015 08:00 -12,0 C 82 % 1031,5 hPa 0,0 l/m 0,0 km/h (0 Bft) S-SO 157 -14,4 C -11,6 C 0,0 km/h (0 Bft)
01.01.2015 08:05 -12,2 C 82 % 1031,5 hPa 0,0 l/m 0,0 km/h (0 Bft) S-SO 157 -14,6 C -11,9 C 0,0 km/h (0 Bft)
01.01.2015 08:10 -12,0 C 82 % 1031,5 hPa 0,0 l/m 0,0 km/h (0 Bft) S-SO 157 -14,4 C -11,9 C 0,0 km/h (0 Bft)
01.01.2015 08:15 -12,0 C 82 % 1031,5 hPa 0,0 l/m 0,0 km/h (0 Bft) S-SO 157 -14,4 C -11,9 C 0,0 km/h (0 Bft)
01.01.2015 08:20 -11,5 C 82 % 1031,4 hPa 0,0 l/m 0,0 km/h (0 Bft) S-SO 157 -13,9 C -11,7 C 0,0 km/h (0 Bft)
01.01.2015 08:25 -11,7 C 82 % 1031,4 hPa 0,0 l/m 0,0 km/h (0 Bft) S-SO 157 -14,1 C -11,7 C 0,0 km/h (0 Bft)
01.01.2015 08:30 -11,6 C 82 % 1031,4 hPa 0,0 l/m 0,0 km/h (0 Bft) SO 135 -14,0 C -11,6 C 0,0 km/h (0 Bft)
01.01.2015 08:35 -11,8 C 82 % 1031,4 hPa 0,0 l/m 0,0 km/h (0 Bft) SO 135 -14,2 C -11,6 C 0,0 km/h (0 Bft)
01.01.2015 08:40 -11,2 C 83 % 1031,4 hPa 0,0 l/m 0,0 km/h (0 Bft) SO 135 -13,5 C -11,6 C 0,0 km/h (0 Bft)
01.01.2015 08:45 -11,0 C 83 % 1031,4 hPa 0,0 l/m 0,0 km/h (0 Bft) SO 135 -13,3 C -11,4 C 0,0 km/h (0 Bft)
01.01.2015 08:50 -11,2 C 83 % 1031,4 hPa 0,0 l/m 0,0 km/h (0 Bft) SO 135 -13,5 C -11,3 C 0,0 km/h (0 Bft)
01.01.2015 08:55 -11,2 C 83 % 1031,4 hPa 0,0 l/m 0,0 km/h (0 Bft) SO 135 -13,5 C -11,1 C 0,0 km/h (0 Bft)
01.01.2015 09:00 -10,7 C 83 % 1031,8 hPa 0,0 l/m 0,0 km/h (0 Bft) SO 135 -13,0 C -10,6 C 0,0 km/h (0 Bft)
01.01.2015 09:05 -10,7 C 83 % 1031,8 hPa 0,0 l/m 0,5 km/h (0 Bft) S-SW 202 -13,0 C -10,4 C 0,0 km/h (0 Bft)
01.01.2015 09:10 -10,1 C 84 % 1031,8 hPa 0,0 l/m 0,5 km/h (0 Bft) S 180 -12,3 C -10,1 C 0,0 km/h (0 Bft)
01.01.2015 09:15 -10,4 C 84 % 1031,8 hPa 0,0 l/m 0,0 km/h (0 Bft) S 180 -12,6 C -9,8 C 0,0 km/h (0 Bft)
01.01.2015 09:20 -10,8 C 84 % 1031,8 hPa 0,0 l/m 0,0 km/h (0 Bft) S 180 -13,0 C -9,9 C 0,0 km/h (0 Bft)
01.01.2015 09:25 -10,9 C 84 % 1031,8 hPa 0,0 l/m 0,0 km/h (0 Bft) S-SO 157 -13,1 C -10,3 C 0,0 km/h (0 Bft)
01.01.2015 09:30 -10,6 C 84 % 1031,8 hPa 0,0 l/m 0,0 km/h (0 Bft) S-SO 157 -12,8 C -10,4 C 0,0 km/h (0 Bft)
01.01.2015 09:35 -9,6 C 84 % 1031,9 hPa 0,0 l/m 0,2 km/h (0 Bft) S-SO 157 -11,8 C -10,2 C 0,0 km/h (0 Bft)
01.01.2015 09:40 -9,2 C 85 % 1031,9 hPa 0,0 l/m 0,2 km/h (0 Bft) S-SO 157 -11,2 C -9,8 C 0,0 km/h (0 Bft)
01.01.2015 09:45 -9,1 C 85 % 1031,9 hPa 0,0 l/m 0,0 km/h (0 Bft) SO 135 -11,1 C -9,2 C 0,0 km/h (0 Bft)
01.01.2015 09:50 -9,0 C 85 % 1031,9 hPa 0,0 l/m 0,0 km/h (0 Bft) SO 135 -11,0 C -8,9 C 0,0 km/h (0 Bft)
01.01.2015 09:55 -8,4 C 86 % 1032,3 hPa 0,0 l/m 0,3 km/h (0 Bft) S 180 -10,3 C -8,6 C 0,0 km/h (0 Bft)
01.01.2015 10:00 -8,0 C 86 % 1032,3 hPa 0,0 l/m 1,0 km/h (0 Bft) S 180 -9,9 C -8,4 C 2,3 km/h (1 Bft)
01.01.2015 10:05 -7,2 C 87 % 1032,3 hPa 0,0 l/m 2,1 km/h (1 Bft) S-SW 202 -9,0 C -8,0 C 6,1 km/h (2 Bft)
01.01.2015 10:10 -7,1 C 87 % 1032,3 hPa 0,0 l/m 1,8 km/h (1 Bft) S-SO 157 -8,9 C -7,2 C 0,0 km/h (0 Bft)
01.01.2015 10:15 -6,7 C 87 % 1032,5 hPa 0,0 l/m 0,5 km/h (0 Bft) S 180 -8,5 C -6,7 C 0,0 km/h (0 Bft)
01.01.2015 10:20 -6,5 C 88 % 1032,5 hPa 0,0 l/m 0,5 km/h (0 Bft) S-SO 157 -8,1 C -6,4 C 2,1 km/h (1 Bft)
01.01.2015 10:25 -6,2 C 88 % 1032,5 hPa 0,0 l/m 0,5 km/h (0 Bft) S-SO 157 -7,9 C -5,7 C 0,0 km/h (0 Bft)
01.01.2015 10:30 -6,5 C 88 % 1032,5 hPa 0,0 l/m 0,3 km/h (0 Bft) S-SO 157 -8,1 C -5,7 C 0,0 km/h (0 Bft)
01.01.2015 10:35 -6,6 C 88 % 1032,1 hPa 0,0 l/m 0,0 km/h (0 Bft) S-SO 157 -8,2 C -5,9 C 0,0 km/h (0 Bft)
01.01.2015 10:40 -6,5 C 89 % 1032,1 hPa 0,0 l/m 0,2 km/h (0 Bft) NO 45 -8,0 C -6,0 C 2,3 km/h (1 Bft)
01.01.2015 10:45 -6,6 C 89 % 1032,1 hPa 0,0 l/m 0,8 km/h (0 Bft) SW 225 -8,1 C -6,1 C 0,0 km/h (0 Bft)
01.01.2015 10:50 -6,2 C 89 % 1032,1 hPa 0,0 l/m 0,8 km/h (0 Bft) S 180 -7,7 C -6,3 C 1,8 km/h (1 Bft)
01.01.2015 10:55 -5,9 C 89 % 1032,0 hPa 0,0 l/m 0,6 km/h (0 Bft) S-SO 157 -7,4 C -6,0 C 0,0 km/h (0 Bft)
01.01.2015 11:00 -6,1 C 89 % 1032,0 hPa 0,0 l/m 0,6 km/h (0 Bft) W-SW 247 -7,6 C -5,9 C 0,0 km/h (0 Bft)
01.01.2015 11:05 -6,2 C 89 % 1032,0 hPa 0,0 l/m 0,0 km/h (0 Bft) SO 135 -7,7 C -6,0 C 0,0 km/h (0 Bft)
01.01.2015 11:10 -6,1 C 89 % 1032,0 hPa 0,0 l/m 0,0 km/h (0 Bft) SO 135 -7,6 C -6,0 C 0,0 km/h (0 Bft)
01.01.2015 11:15 -5,8 C 89 % 1032,1 hPa 0,0 l/m 0,0 km/h (0 Bft) SO 135 -7,3 C -5,7 C 0,0 km/h (0 Bft)
01.01.2015 11:20 -5,5 C 89 % 1032,1 hPa 0,0 l/m 0,2 km/h (0 Bft) S-SO 157 -7,0 C -5,6 C 1,9 km/h (1 Bft)
01.01.2015 11:25 -5,2 C 90 % 1032,1 hPa 0,0 l/m 0,5 km/h (0 Bft) SO 135 -6,6 C -5,2 C 0,0 km/h (0 Bft)
01.01.2015 11:30 -5,1 C 90 % 1032,1 hPa 0,0 l/m 0,5 km/h (0 Bft) S 180 -6,5 C -5,0 C 0,0 km/h (0 Bft)
01.01.2015 11:35 -5,1 C 90 % 1031,9 hPa 0,0 l/m 0,2 km/h (0 Bft) S-SO 157 -6,5 C -5,0 C 2,1 km/h (1 Bft)
01.01.2015 11:40 -4,8 C 90 % 1031,9 hPa 0,0 l/m 0,5 km/h (0 Bft) SO 135 -6,2 C -4,9 C 1,9 km/h (1 Bft)
01.01.2015 11:45 -4,8 C 90 % 1031,9 hPa 0,0 l/m 0,3 km/h (0 Bft) SO 135 -6,2 C -4,8 C 0,0 km/h (0 Bft)
01.01.2015 11:50 -4,6 C 90 % 1031,9 hPa 0,0 l/m 0,2 km/h (0 Bft) S-SO 157 -6,0 C -4,6 C 0,0 km/h (0 Bft)
01.01.2015 11:55 -4,4 C 91 % 1031,7 hPa 0,0 l/m 0,2 km/h (0 Bft) W-SW 247 -5,6 C -4,4 C 0,0 km/h (0 Bft)
01.01.2015 12:00 -4,4 C 91 % 1031,7 hPa 0,0 l/m 0,0 km/h (0 Bft) S-SO 157 -5,6 C -4,3 C 0,0 km/h (0 Bft)
01.01.2015 12:05 -4,1 C 91 % 1031,7 hPa 0,0 l/m 0,3 km/h (0 Bft) SO 135 -5,3 C -4,1 C 1,8 km/h (1 Bft)
01.01.2015 12:10 -4,0 C 91 % 1031,7 hPa 0,0 l/m 0,3 km/h (0 Bft) SO 135 -5,2 C -4,0 C 0,0 km/h (0 Bft)
01.01.2015 12:15 -4,0 C 91 % 1032,2 hPa 0,0 l/m 0,2 km/h (0 Bft) S 180 -5,2 C -4,0 C 0,0 km/h (0 Bft)
01.01.2015 12:20 -3,9 C 91 % 1032,2 hPa 0,0 l/m 1,0 km/h (0 Bft) W-SW 247 -5,1 C -3,9 C 2,1 km/h (1 Bft)
01.01.2015 12:25 -3,7 C 92 % 1032,2 hPa 0,0 l/m 2,6 km/h (1 Bft) W 270 -4,8 C -4,2 C 4,5 km/h (1 Bft)
01.01.2015 12:30 -3,7 C 92 % 1032,2 hPa 0,0 l/m 3,4 km/h (1 Bft) NW 315 -4,8 C -4,7 C 3,2 km/h (1 Bft)
01.01.2015 12:35 -3,8 C 92 % 1032,4 hPa 0,0 l/m 3,4 km/h (1 Bft) W 270 -4,9 C -4,7 C 3,2 km/h (1 Bft)
01.01.2015 12:40 -3,5 C 92 % 1032,4 hPa 0,0 l/m 3,2 km/h (1 Bft) NW 315 -4,6 C -4,6 C 6,6 km/h (2 Bft)
01.01.2015 12:45 -3,4 C 92 % 1032,4 hPa 0,0 l/m 3,7 km/h (1 Bft) SW 225 -4,5 C -4,9 C 7,2 km/h (2 Bft)
01.01.2015 12:50 -3,5 C 92 % 1032,4 hPa 0,0 l/m 4,2 km/h (1 Bft) N-NW 337 -4,6 C -5,2 C 6,0 km/h (2 Bft)
01.01.2015 12:55 -3,6 C 92 % 1032,8 hPa 0,0 l/m 5,0 km/h (1 Bft) NW 315 -4,7 C -5,9 C 8,0 km/h (2 Bft)
01.01.2015 13:00 -3,6 C 92 % 1032,8 hPa 0,0 l/m 5,0 km/h (1 Bft) W 270 -4,7 C -5,9 C 3,2 km/h (1 Bft)
01.01.2015 13:05 -3,7 C 92 % 1032,8 hPa 0,0 l/m 2,7 km/h (1 Bft) W-NW 292 -4,8 C -4,3 C 1,8 km/h (1 Bft)
01.01.2015 13:10 -3,7 C 92 % 1032,8 hPa 0,0 l/m 1,8 km/h (1 Bft) W-SW 247 -4,8 C -3,7 C 5,3 km/h (1 Bft)
01.01.2015 13:15 -3,6 C 92 % 1032,8 hPa 0,0 l/m 1,6 km/h (1 Bft) S 180 -4,7 C -3,7 C 2,1 km/h (1 Bft)
01.01.2015 13:20 -3,6 C 92 % 1032,8 hPa 0,0 l/m 1,4 km/h (1 Bft) SO 135 -4,7 C -3,7 C 0,0 km/h (0 Bft)
01.01.2015 13:25 -3,6 C 92 % 1032,8 hPa 0,0 l/m 0,3 km/h (0 Bft) SO 135 -4,7 C -3,7 C 0,0 km/h (0 Bft)
01.01.2015 13:30 -3,6 C 92 % 1032,8 hPa 0,0 l/m 1,0 km/h (0 Bft) S-SO 157 -4,7 C -3,7 C 2,7 km/h (1 Bft)
01.01.2015 13:35 -3,7 C 92 % 1032,1 hPa 0,0 l/m 1,0 km/h (0 Bft) SO 135 -4,8 C -3,7 C 0,0 km/h (0 Bft)
01.01.2015 13:40 -3,6 C 92 % 1032,1 hPa 0,0 l/m 0,6 km/h (0 Bft) SO 135 -4,7 C -3,7 C 1,9 km/h (1 Bft)
01.01.2015 13:45 -3,6 C 92 % 1032,1 hPa 0,0 l/m 0,6 km/h (0 Bft) SO 135 -4,7 C -3,6 C 2,6 km/h (1 Bft)
01.01.2015 13:50 -3,4 C 92 % 1032,1 hPa 0,0 l/m 0,8 km/h (0 Bft) O-SO 112 -4,5 C -3,0 C 0,0 km/h (0 Bft)
01.01.2015 13:55 -3,4 C 92 % 1032,2 hPa 0,0 l/m 0,8 km/h (0 Bft) S-SO 157 -4,5 C -1,2 C 2,6 km/h (1 Bft)
01.01.2015 14:00 -3,1 C 92 % 1032,2 hPa 0,0 l/m 0,8 km/h (0 Bft) S-SO 157 -4,2 C -0,5 C 2,6 km/h (1 Bft)
01.01.2015 14:05 -2,9 C 92 % 1032,2 hPa 0,0 l/m 1,1 km/h (1 Bft) S-SO 157 -4,0 C 0,8 C 0,0 km/h (0 Bft)
01.01.2015 14:10 -2,8 C 92 % 1032,2 hPa 0,0 l/m 0,6 km/h (0 Bft) S-SO 157 -3,9 C 1,2 C 0,0 km/h (0 Bft)
01.01.2015 14:15 -2,7 C 92 % 1031,6 hPa 0,0 l/m 0,2 km/h (0 Bft) SO 135 -3,8 C 2,1 C 0,0 km/h (0 Bft)
01.01.2015 14:20 -2,7 C 92 % 1031,6 hPa 0,0 l/m 0,2 km/h (0 Bft) SO 135 -3,8 C 2,5 C 0,0 km/h (0 Bft)
01.01.2015 14:25 -2,9 C 92 % 1031,6 hPa 0,0 l/m 0,5 km/h (0 Bft) SO 135 -4,0 C 2,4 C 1,8 km/h (1 Bft)
01.01.2015 14:30 -3,0 C 92 % 1031,6 hPa 0,0 l/m 1,1 km/h (1 Bft) SO 135 -4,1 C 1,0 C 1,9 km/h (1 Bft)
01.01.2015 14:35 -3,1 C 92 % 1031,2 hPa 0,0 l/m 1,8 km/h (1 Bft) SO 135 -4,2 C -0,3 C 1,9 km/h (1 Bft)
01.01.2015 14:40 -3,1 C 92 % 1031,2 hPa 0,0 l/m 1,1 km/h (1 Bft) SO 135 -4,2 C -0,4 C 0,0 km/h (0 Bft)
01.01.2015 14:45 -3,2 C 92 % 1031,2 hPa 0,0 l/m 0,5 km/h (0 Bft) SO 135 -4,3 C 1,1 C 1,8 km/h (1 Bft)
01.01.2015 14:50 -3,0 C 92 % 1031,2 hPa 0,0 l/m 0,6 km/h (0 Bft) SO 135 -4,1 C 1,6 C 2,9 km/h (1 Bft)
01.01.2015 14:55 -2,9 C 93 % 1031,3 hPa 0,0 l/m 1,3 km/h (1 Bft) S 180 -3,9 C 1,1 C 2,3 km/h (1 Bft)
01.01.2015 15:00 -2,9 C 93 % 1031,3 hPa 0,0 l/m 1,1 km/h (1 Bft) S 180 -3,9 C 0,4 C 3,4 km/h (1 Bft)
01.01.2015 15:05 -3,1 C 93 % 1031,3 hPa 0,0 l/m 0,6 km/h (0 Bft) S 180 -4,1 C -0,2 C 1,8 km/h (1 Bft)
01.01.2015 15:10 -3,1 C 93 % 1031,3 hPa 0,0 l/m 0,6 km/h (0 Bft) S 180 -4,1 C -0,5 C 1,8 km/h (1 Bft)
01.01.2015 15:15 -3,1 C 92 % 1031,1 hPa 0,0 l/m 0,3 km/h (0 Bft) S 180 -4,2 C -1,8 C 0,0 km/h (0 Bft)
01.01.2015 15:20 -3,1 C 92 % 1031,1 hPa 0,0 l/m 0,2 km/h (0 Bft) S 180 -4,2 C -2,4 C 0,0 km/h (0 Bft)
01.01.2015 15:25 -3,2 C 93 % 1031,1 hPa 0,0 l/m 0,2 km/h (0 Bft) S 180 -4,2 C -3,0 C 1,8 km/h (1 Bft)
01.01.2015 15:30 -3,2 C 92 % 1031,1 hPa 0,0 l/m 0,5 km/h (0 Bft) S 180 -4,3 C -3,1 C 1,8 km/h (1 Bft)
01.01.2015 15:35 -3,1 C 93 % 1030,9 hPa 0,0 l/m 0,8 km/h (0 Bft) S 180 -4,1 C -3,2 C 0,0 km/h (0 Bft)
01.01.2015 15:40 -3,1 C 93 % 1030,9 hPa 0,0 l/m 1,1 km/h (1 Bft) S 180 -4,1 C -3,3 C 0,0 km/h (0 Bft)
01.01.2015 15:45 -3,6 C 92 % 1030,9 hPa 0,0 l/m 1,1 km/h (1 Bft) S 180 -4,7 C -3,6 C 1,8 km/h (1 Bft)
01.01.2015 15:50 -3,6 C 92 % 1030,9 hPa 0,0 l/m 0,5 km/h (0 Bft) S 180 -4,7 C -3,7 C 0,0 km/h (0 Bft)
01.01.2015 15:55 -3,9 C 92 % 1030,8 hPa 0,0 l/m 0,2 km/h (0 Bft) S 180 -5,0 C -4,0 C 0,0 km/h (0 Bft)
01.01.2015 16:00 -3,7 C 92 % 1030,8 hPa 0,0 l/m 0,2 km/h (0 Bft) S 180 -4,8 C -4,0 C 1,6 km/h (1 Bft)
01.01.2015 16:05 -3,9 C 92 % 1030,8 hPa 0,0 l/m 0,8 km/h (0 Bft) S 180 -5,0 C -4,2 C 2,3 km/h (1 Bft)
01.01.2015 16:10 -3,7 C 92 % 1030,8 hPa 0,0 l/m 1,3 km/h (1 Bft) S 180 -4,8 C -4,2 C 2,1 km/h (1 Bft)
01.01.2015 16:15 -3,7 C 92 % 1031,6 hPa 0,0 l/m 1,6 km/h (1 Bft) S 180 -4,8 C -4,2 C 2,7 km/h (1 Bft)
01.01.2015 16:20 -3,8 C 92 % 1031,6 hPa 0,0 l/m 1,9 km/h (1 Bft) S 180 -4,9 C -4,2 C 4,2 km/h (1 Bft)
01.01.2015 16:25 -3,6 C 92 % 1031,6 hPa 0,0 l/m 3,1 km/h (1 Bft) S 180 -4,7 C -5,1 C 3,7 km/h (1 Bft)
01.01.2015 16:30 -3,6 C 92 % 1031,6 hPa 0,0 l/m 3,2 km/h (1 Bft) S 180 -4,7 C -5,1 C 2,9 km/h (1 Bft)
01.01.2015 16:35 -3,9 C 92 % 1032,0 hPa 0,0 l/m 2,1 km/h (1 Bft) S 180 -5,0 C -4,3 C 2,6 km/h (1 Bft)
01.01.2015 16:40 -4,0 C 92 % 1032,0 hPa 0,0 l/m 2,1 km/h (1 Bft) S 180 -5,1 C -4,4 C 3,5 km/h (1 Bft)
01.01.2015 16:45 -4,0 C 92 % 1032,0 hPa 0,0 l/m 2,9 km/h (1 Bft) S 180 -5,1 C -5,2 C 5,5 km/h (1 Bft)
01.01.2015 16:50 -3,8 C 92 % 1032,0 hPa 0,0 l/m 3,1 km/h (1 Bft) S 180 -4,9 C -5,2 C 3,2 km/h (1 Bft)
01.01.2015 16:55 -4,5 C 92 % 1032,0 hPa 0,0 l/m 2,6 km/h (1 Bft) SO 135 -5,6 C -5,1 C 3,2 km/h (1 Bft)
01.01.2015 17:00 -4,6 C 92 % 1032,0 hPa 0,0 l/m 2,3 km/h (1 Bft) SO 135 -5,7 C -4,8 C 2,6 km/h (1 Bft)
01.01.2015 17:05 -4,8 C 92 % 1032,0 hPa 0,0 l/m 2,3 km/h (1 Bft) S-SO 157 -5,9 C -5,0 C 1,8 km/h (1 Bft)
01.01.2015 17:10 -4,9 C 92 % 1032,0 hPa 0,0 l/m 1,6 km/h (1 Bft) S-SO 157 -6,0 C -5,0 C 0,0 km/h (0 Bft)
01.01.2015 17:15 -5,3 C 91 % 1031,8 hPa 0,0 l/m 1,1 km/h (1 Bft) S-SO 157 -6,5 C -5,3 C 0,0 km/h (0 Bft)
01.01.2015 17:20 -5,6 C 91 % 1031,8 hPa 0,0 l/m 0,5 km/h (0 Bft) S-SO 157 -6,8 C -5,7 C 0,0 km/h (0 Bft)
01.01.2015 17:25 -5,4 C 91 % 1031,8 hPa 0,0 l/m 0,5 km/h (0 Bft) SO 135 -6,6 C -5,8 C 0,0 km/h (0 Bft)
01.01.2015 17:30 -5,5 C 91 % 1031,8 hPa 0,0 l/m 0,5 km/h (0 Bft) SO 135 -6,7 C -5,9 C 0,0 km/h (0 Bft)
01.01.2015 17:35 -5,3 C 91 % 1032,1 hPa 0,0 l/m 0,2 km/h (0 Bft) S-SO 157 -6,5 C -6,1 C 1,6 km/h (1 Bft)
01.01.2015 17:40 -5,4 C 91 % 1032,1 hPa 0,0 l/m 0,5 km/h (0 Bft) SO 135 -6,6 C -5,8 C 0,0 km/h (0 Bft)
01.01.2015 17:45 -5,8 C 90 % 1032,1 hPa 0,0 l/m 0,6 km/h (0 Bft) S-SO 157 -7,2 C -6,0 C 0,0 km/h (0 Bft)
01.01.2015 17:50 -5,7 C 90 % 1032,1 hPa 0,0 l/m 0,3 km/h (0 Bft) S-SO 157 -7,1 C -6,1 C 1,8 km/h (1 Bft)
01.01.2015 17:55 -6,0 C 90 % 1031,8 hPa 0,0 l/m 0,6 km/h (0 Bft) S-SO 157 -7,4 C -6,1 C 1,8 km/h (1 Bft)
01.01.2015 18:00 -5,9 C 90 % 1031,8 hPa 0,0 l/m 1,1 km/h (1 Bft) S-SO 157 -7,3 C -6,3 C 0,0 km/h (0 Bft)
01.01.2015 18:05 -6,3 C 90 % 1031,8 hPa 0,0 l/m 0,6 km/h (0 Bft) S-SO 157 -7,7 C -6,4 C 0,0 km/h (0 Bft)
01.01.2015 18:10 -6,3 C 90 % 1031,8 hPa 0,0 l/m 0,0 km/h (0 Bft) S-SO 157 -7,7 C -6,6 C 0,0 km/h (0 Bft)
01.01.2015 18:15 -5,9 C 90 % 1031,2 hPa 0,0 l/m 0,3 km/h (0 Bft) S-SO 157 -7,3 C -6,5 C 0,0 km/h (0 Bft)
01.01.2015 18:20 -6,4 C 90 % 1031,2 hPa 0,0 l/m 0,3 km/h (0 Bft) S-SO 157 -7,8 C -6,5 C 1,6 km/h (1 Bft)
01.01.2015 18:25 -6,1 C 90 % 1031,2 hPa 0,0 l/m 0,6 km/h (0 Bft) SO 135 -7,5 C -6,5 C 0,0 km/h (0 Bft)
01.01.2015 18:30 -6,2 C 90 % 1031,2 hPa 0,0 l/m 0,8 km/h (0 Bft) S-SO 157 -7,6 C -6,5 C 0,0 km/h (0 Bft)
01.01.2015 18:35 -6,1 C 90 % 1031,0 hPa 0,0 l/m 0,2 km/h (0 Bft) S-SO 157 -7,5 C -6,5 C 1,8 km/h (1 Bft)
01.01.2015 18:40 -7,4 C 89 % 1031,0 hPa 0,0 l/m 0,6 km/h (0 Bft) S 180 -8,9 C -6,9 C 2,3 km/h (1 Bft)
01.01.2015 18:45 -7,2 C 89 % 1031,0 hPa 0,0 l/m 0,8 km/h (0 Bft) S 180 -8,7 C -7,1 C 0,0 km/h (0 Bft)
01.01.2015 18:50 -7,1 C 89 % 1031,0 hPa 0,0 l/m 0,8 km/h (0 Bft) S 180 -8,6 C -7,3 C 2,1 km/h (1 Bft)
01.01.2015 18:55 -6,8 C 89 % 1031,4 hPa 0,0 l/m 0,5 km/h (0 Bft) S 180 -8,3 C -7,1 C 0,0 km/h (0 Bft)
01.01.2015 19:00 -6,2 C 89 % 1031,4 hPa 0,0 l/m 0,8 km/h (0 Bft) S 180 -7,7 C -7,0 C 3,1 km/h (1 Bft)
01.01.2015 19:05 -6,0 C 89 % 1031,4 hPa 0,0 l/m 1,6 km/h (1 Bft) S 180 -7,5 C -6,4 C 0,0 km/h (0 Bft)
01.01.2015 19:10 -6,7 C 89 % 1031,4 hPa 0,0 l/m 1,4 km/h (1 Bft) S 180 -8,2 C -6,5 C 0,0 km/h (0 Bft)
01.01.2015 19:15 -5,3 C 90 % 1032,0 hPa 0,0 l/m 1,9 km/h (1 Bft) S 180 -6,7 C -6,8 C 5,0 km/h (1 Bft)
01.01.2015 19:20 -4,9 C 90 % 1032,0 hPa 0,0 l/m 2,9 km/h (1 Bft) S-SO 157 -6,3 C -7,1 C 2,1 km/h (1 Bft)
01.01.2015 19:25 -4,9 C 91 % 1032,0 hPa 0,0 l/m 1,9 km/h (1 Bft) S-SO 157 -6,1 C -5,5 C 2,4 km/h (1 Bft)
01.01.2015 19:30 -5,0 C 91 % 1032,0 hPa 0,0 l/m 1,1 km/h (1 Bft) SO 135 -6,2 C -5,3 C 3,9 km/h (1 Bft)
01.01.2015 19:35 -4,9 C 91 % 1032,0 hPa 0,0 l/m 2,3 km/h (1 Bft) S-SO 157 -6,1 C -5,3 C 0,0 km/h (0 Bft)
01.01.2015 19:40 -5,1 C 91 % 1032,0 hPa 0,0 l/m 2,6 km/h (1 Bft) S-SO 157 -6,3 C -5,7 C 1,8 km/h (1 Bft)
01.01.2015 19:45 -5,9 C 91 % 1032,0 hPa 0,0 l/m 1,3 km/h (1 Bft) S 180 -7,1 C -5,4 C 0,0 km/h (0 Bft)
01.01.2015 19:50 -7,0 C 90 % 1032,0 hPa 0,0 l/m 0,6 km/h (0 Bft) SO 135 -8,4 C -6,1 C 0,0 km/h (0 Bft)
01.01.2015 19:55 -6,5 C 90 % 1032,1 hPa 0,0 l/m 0,3 km/h (0 Bft) S-SO 157 -7,9 C -6,5 C 2,7 km/h (1 Bft)
01.01.2015 20:00 -5,6 C 90 % 1032,1 hPa 0,0 l/m 0,3 km/h (0 Bft) S-SO 157 -7,0 C -6,1 C 0,0 km/h (0 Bft)
01.01.2015 20:05 -5,9 C 90 % 1032,1 hPa 0,0 l/m 0,5 km/h (0 Bft) SO 135 -7,3 C -6,1 C 0,0 km/h (0 Bft)
01.01.2015 20:10 -6,9 C 90 % 1032,1 hPa 0,0 l/m 0,2 km/h (0 Bft) S-SO 157 -8,3 C -6,6 C 0,0 km/h (0 Bft)
01.01.2015 20:15 -6,9 C 89 % 1032,1 hPa 0,0 l/m 0,0 km/h (0 Bft) S-SO 157 -8,4 C -7,1 C 0,0 km/h (0 Bft)
01.01.2015 20:20 -7,1 C 89 % 1032,1 hPa 0,0 l/m 0,0 km/h (0 Bft) S-SO 157 -8,6 C -7,1 C 0,0 km/h (0 Bft)
01.01.2015 20:25 -7,5 C 89 % 1032,1 hPa 0,0 l/m 0,0 km/h (0 Bft) SO 135 -9,0 C -7,8 C 0,0 km/h (0 Bft)
01.01.2015 20:30 -7,0 C 89 % 1032,1 hPa 0,0 l/m 0,0 km/h (0 Bft) SO 135 -8,5 C -7,8 C 0,0 km/h (0 Bft)
01.01.2015 20:35 -6,8 C 89 % 1032,0 hPa 0,0 l/m 0,0 km/h (0 Bft) SO 135 -8,3 C -7,5 C 0,0 km/h (0 Bft)
01.01.2015 20:40 -7,4 C 89 % 1032,0 hPa 0,0 l/m 0,0 km/h (0 Bft) S 180 -8,9 C -7,8 C 0,0 km/h (0 Bft)
01.01.2015 20:45 -7,9 C 88 % 1032,0 hPa 0,0 l/m 0,0 km/h (0 Bft) S 180 -9,5 C -8,0 C 0,0 km/h (0 Bft)
01.01.2015 20:50 -7,8 C 88 % 1032,0 hPa 0,0 l/m 0,0 km/h (0 Bft) S 180 -9,4 C -8,0 C 0,0 km/h (0 Bft)
01.01.2015 20:55 -8,2 C 88 % 1032,2 hPa 0,0 l/m 0,0 km/h (0 Bft) S 180 -9,8 C -8,0 C 0,0 km/h (0 Bft)
01.01.2015 21:00 -8,4 C 88 % 1032,2 hPa 0,0 l/m 0,0 km/h (0 Bft) S 180 -10,0 C -8,3 C 0,0 km/h (0 Bft)
01.01.2015 21:05 -8,6 C 87 % 1032,2 hPa 0,0 l/m 0,0 km/h (0 Bft) S-SO 157 -10,4 C -8,4 C 0,0 km/h (0 Bft)
01.01.2015 21:10 -8,2 C 88 % 1032,2 hPa 0,0 l/m 0,0 km/h (0 Bft) S-SO 157 -9,8 C -8,5 C 0,0 km/h (0 Bft)
01.01.2015 21:15 -7,2 C 88 % 1032,1 hPa 0,0 l/m 0,0 km/h (0 Bft) SO 135 -8,8 C -8,1 C 0,0 km/h (0 Bft)
01.01.2015 21:20 -8,3 C 88 % 1032,1 hPa 0,0 l/m 0,0 km/h (0 Bft) S 180 -9,9 C -8,2 C 0,0 km/h (0 Bft)
01.01.2015 21:25 -8,6 C 87 % 1032,1 hPa 0,0 l/m 0,0 km/h (0 Bft) S 180 -10,4 C -8,6 C 0,0 km/h (0 Bft)
01.01.2015 21:30 -8,7 C 87 % 1032,1 hPa 0,0 l/m 0,0 km/h (0 Bft) S 180 -10,5 C -8,8 C 0,0 km/h (0 Bft)
01.01.2015 21:35 -8,6 C 87 % 1032,0 hPa 0,0 l/m 0,0 km/h (0 Bft) S 180 -10,4 C -8,8 C 0,0 km/h (0 Bft)
01.01.2015 21:40 -8,9 C 87 % 1032,0 hPa 0,0 l/m 0,0 km/h (0 Bft) SO 135 -10,7 C -8,8 C 0,0 km/h (0 Bft)
01.01.2015 21:45 -8,4 C 87 % 1032,0 hPa 0,0 l/m 0,0 km/h (0 Bft) S-SO 157 -10,2 C -8,8 C 0,0 km/h (0 Bft)
01.01.2015 21:50 -8,4 C 87 % 1032,0 hPa 0,0 l/m 0,0 km/h (0 Bft) S-SO 157 -10,2 C -8,7 C 0,0 km/h (0 Bft)
01.01.2015 21:55 -8,1 C 87 % 1031,8 hPa 0,0 l/m 0,3 km/h (0 Bft) S 180 -9,9 C -8,5 C 0,0 km/h (0 Bft)
01.01.2015 22:00 -8,4 C 87 % 1031,8 hPa 0,0 l/m 0,3 km/h (0 Bft) S 180 -10,2 C -8,6 C 0,0 km/h (0 Bft)
01.01.2015 22:05 -8,6 C 87 % 1031,8 hPa 0,0 l/m 0,0 km/h (0 Bft) S 180 -10,4 C -8,7 C 0,0 km/h (0 Bft)
01.01.2015 22:10 -8,9 C 87 % 1031,8 hPa 0,0 l/m 0,0 km/h (0 Bft) S 180 -10,7 C -8,8 C 0,0 km/h (0 Bft)
01.01.2015 22:15 -8,8 C 87 % 1031,7 hPa 0,0 l/m 0,0 km/h (0 Bft) S 180 -10,6 C -8,9 C 0,0 km/h (0 Bft)
01.01.2015 22:20 -8,6 C 87 % 1031,7 hPa 0,0 l/m 0,0 km/h (0 Bft) S 180 -10,4 C -8,8 C 0,0 km/h (0 Bft)
01.01.2015 22:25 -8,4 C 87 % 1031,7 hPa 0,0 l/m 0,0 km/h (0 Bft) S 180 -10,2 C -8,6 C 0,0 km/h (0 Bft)
01.01.2015 22:30 -8,5 C 87 % 1031,7 hPa 0,0 l/m 0,0 km/h (0 Bft) S 180 -10,3 C -8,6 C 0,0 km/h (0 Bft)
01.01.2015 22:35 -8,5 C 87 % 1031,6 hPa 0,0 l/m 0,0 km/h (0 Bft) S 180 -10,3 C -8,6 C 0,0 km/h (0 Bft)
01.01.2015 22:40 -8,2 C 87 % 1031,6 hPa 0,0 l/m 0,0 km/h (0 Bft) S 180 -10,0 C -8,5 C 0,0 km/h (0 Bft)
01.01.2015 22:45 -8,6 C 87 % 1031,6 hPa 0,0 l/m 0,0 km/h (0 Bft) S 180 -10,4 C -8,5 C 0,0 km/h (0 Bft)
01.01.2015 22:50 -8,3 C 87 % 1031,6 hPa 0,0 l/m 0,0 km/h (0 Bft) S 180 -10,1 C -8,6 C 0,0 km/h (0 Bft)
01.01.2015 22:55 -8,6 C 87 % 1031,6 hPa 0,0 l/m 0,0 km/h (0 Bft) S 180 -10,4 C -8,7 C 0,0 km/h (0 Bft)
01.01.2015 23:00 -8,5 C 87 % 1031,6 hPa 0,0 l/m 0,0 km/h (0 Bft) S 180 -10,3 C -8,8 C 0,0 km/h (0 Bft)
01.01.2015 23:05 -8,5 C 87 % 1031,6 hPa 0,0 l/m 0,0 km/h (0 Bft) S 180 -10,3 C -8,8 C 0,0 km/h (0 Bft)
01.01.2015 23:10 -8,5 C 87 % 1031,6 hPa 0,0 l/m 0,0 km/h (0 Bft) S 180 -10,3 C -8,8 C 0,0 km/h (0 Bft)
01.01.2015 23:15 -8,7 C 87 % 1031,6 hPa 0,0 l/m 0,0 km/h (0 Bft) S 180 -10,5 C -8,8 C 0,0 km/h (0 Bft)
01.01.2015 23:20 -8,7 C 87 % 1031,6 hPa 0,0 l/m 0,0 km/h (0 Bft) S 180 -10,5 C -8,8 C 0,0 km/h (0 Bft)
01.01.2015 23:25 -8,7 C 87 % 1031,6 hPa 0,0 l/m 0,0 km/h (0 Bft) S 180 -10,5 C -8,8 C 0,0 km/h (0 Bft)
01.01.2015 23:30 -8,6 C 87 % 1031,6 hPa 0,0 l/m 0,0 km/h (0 Bft) S 180 -10,4 C -8,6 C 0,0 km/h (0 Bft)
01.01.2015 23:35 -8,6 C 87 % 1031,6 hPa 0,0 l/m 0,0 km/h (0 Bft) S 180 -10,4 C -8,6 C 0,0 km/h (0 Bft)
01.01.2015 23:40 -8,2 C 87 % 1031,6 hPa 0,0 l/m 0,0 km/h (0 Bft) S 180 -10,0 C -8,6 C 0,0 km/h (0 Bft)
01.01.2015 23:45 -8,4 C 87 % 1031,6 hPa 0,0 l/m 0,0 km/h (0 Bft) S 180 -10,2 C -8,6 C 0,0 km/h (0 Bft)
01.01.2015 23:50 -8,6 C 87 % 1031,6 hPa 0,0 l/m 0,0 km/h (0 Bft) S 180 -10,4 C -8,6 C 0,0 km/h (0 Bft)
01.01.2015 23:55 -8,6 C 87 % 1031,6 hPa 0,0 l/m 0,0 km/h (0 Bft) S 180 -10,4 C -8,6 C 0,0 km/h (0 Bft)
_ Min-Zeit 05:05 08:35 16:10 - 23:55 - - 05:05 07:35 23:55
Minimum _ -12,8 C 82 % 1030,8 hPa - 0,0 km/h (0 Bft) - - -15,2 C -12,5 C 0,0 km/h (0 Bft)
_ Max-Zeit 14:20 15:40 13:30 23:55 13:00 - - 14:20 14:20 12:55
Maximum _ -2,7 C 93 % 1032,8 hPa 0,0 l/m 5,0 km/h
W (1 Bft)
- - -3,8 C 2,5 C 8,0 km/h
NW (2 Bft)
Durchschnitt _ -7,6 C 88 % 1031,8 hPa #0,0 l/m 0,5 km/h (0 Bft) S - -9,3 C -7,6 C 0,7 km/h (0 Bft)